Weather History for Waukesha, WI

Change the Weather History Date:

Saturday, March 17, 2012

  Actual Average Record
Temperature  
Mean Temperature 66 °F -  
Max Temperature 77 °F 41 °F 77 °F (2012)
Min Temperature 55 °F 23 °F 7 °F (1967)
Cooling Degree Days 1    
Growing Degree Days 16 (Base 50)    
Moisture  
Dew Point 52 °F    
Average Humidity 74    
Maximum Humidity 88    
Minimum Humidity 47    
Precipitation  
Precipitation 0.00 in - - ()
Sea Level Pressure  
Sea Level Pressure 30.02 in    
Wind  
Wind Speed 7 mph (South)    
Max Wind Speed 17 mph    
Max Gust Speed 18 mph    
Visibility 10 miles    
Events      
Averages and records for this station are not official NWS values.
T = Trace of Precipitation, MM = Missing Value Source: NWS Daily Summary

Daily Weather History Graph

Daily Weather History Graph

Search for Another Location

Airport:

Trip Planner

Search our weather history database for the weather conditions in past years. The results will help you decide how hot, cold, wet, or windy it might be!

Date:

Astronomy

Mar. 17, 2012 Rise Set
Actual Time 7:00 AM CDT 7:02 PM CDT
Civil Twilight 6:32 AM CDT 7:30 PM CDT
Nautical Twilight 5:59 AM CDT 8:03 PM CDT
Astronomical Twilight 5:25 AM CDT 8:37 PM CDT
Moon 4:09 AM CDT (3/17) 2:19 PM CDT (3/17)
Length of Visible Light 12h 58m
Length of Day
12h 01m
Waning Crescent, 23% of the Moon is Illuminated
Mar 17
Waning Crescent
Mar 22
New
Mar 30
First Quarter
Apr 6
Full
Apr 13
Last Quarter

Hourly Weather History & Observations

Time (CDT) Temp. Dew Point Humidity Pressure Visibility Wind Dir Wind Speed Gust Speed Precip Events Conditions
12:15 AM 55.4 °F 50.0 °F 82% 30.03 in 10.0 mi South 3.5 mph - N/A   Clear
12:35 AM 55.4 °F 50.0 °F 82% 30.03 in 10.0 mi South 4.6 mph - N/A   Clear
12:55 AM 55.4 °F 50.0 °F 82% 30.03 in 10.0 mi South 5.8 mph - N/A   Clear
1:15 AM 55.4 °F 50.0 °F 82% 30.03 in 10.0 mi South 5.8 mph - N/A   Clear
1:35 AM 55.4 °F 50.0 °F 82% 30.03 in 10.0 mi South 5.8 mph - N/A   Clear
1:55 AM 55.4 °F 50.0 °F 82% 30.03 in 10.0 mi South 5.8 mph - N/A   Clear
2:15 AM 55.4 °F 50.0 °F 82% 30.04 in 10.0 mi South 5.8 mph - N/A   Clear
2:35 AM 55.4 °F 50.0 °F 82% 30.04 in 10.0 mi South 4.6 mph - N/A   Clear
2:55 AM 55.4 °F 50.0 °F 82% 30.04 in 10.0 mi South 4.6 mph - N/A   Clear
3:15 AM 55.4 °F 50.0 °F 82% 30.03 in 10.0 mi South 5.8 mph - N/A   Clear
3:35 AM 55.4 °F 50.0 °F 82% 30.03 in 10.0 mi South 4.6 mph - N/A   Clear
3:55 AM 55.4 °F 50.0 °F 82% 30.03 in 10.0 mi South 5.8 mph - N/A   Clear
4:15 AM 55.4 °F 51.8 °F 88% 30.03 in 10.0 mi South 8.1 mph - N/A   Clear
4:35 AM 55.4 °F 51.8 °F 88% 30.03 in 10.0 mi South 5.8 mph - N/A   Clear
4:55 AM 55.4 °F 51.8 °F 88% 30.03 in 10.0 mi South 6.9 mph - N/A   Clear
5:15 AM 55.4 °F 51.8 °F 88% 30.04 in 10.0 mi South 5.8 mph - N/A   Clear
5:35 AM 55.4 °F 51.8 °F 88% 30.04 in 10.0 mi South 5.8 mph - N/A   Clear
5:45 AM 57.2 °F 51.8 °F 82% 30.04 in 10.0 mi South 5.8 mph - N/A   Clear
6:45 AM 57.2 °F 53.6 °F 88% 30.05 in 10.0 mi South 5.8 mph - N/A   Scattered Clouds
7:45 AM 57.2 °F 53.6 °F 88% 30.05 in 10.0 mi South 11.5 mph 16.1 mph N/A   Scattered Clouds
8:45 AM 59.0 °F 53.6 °F 82% 30.03 in 10.0 mi South 9.2 mph 18.4 mph N/A   Clear
9:45 AM 60.8 °F 53.6 °F 77% 30.04 in 10.0 mi SW 10.4 mph - N/A   Clear
10:45 AM 62.6 °F 53.6 °F 72% 30.05 in 10.0 mi South 9.2 mph - N/A   Clear
11:45 AM 64.4 °F 57.2 °F 77% 30.04 in 10.0 mi South 12.7 mph - N/A   Clear
1:45 PM 73.4 °F 57.2 °F 57% 30.01 in 10.0 mi SSW 17.3 mph - N/A   Clear
2:45 PM 75.2 °F 59.0 °F 57% 29.99 in 10.0 mi SSW 13.8 mph - N/A   Scattered Clouds
3:45 PM 77.0 °F 57.2 °F 50% 29.98 in 10.0 mi SSW 12.7 mph - N/A   Scattered Clouds
4:45 PM 75.2 °F 55.4 °F 50% 29.97 in 10.0 mi South 11.5 mph - N/A   Clear
5:45 PM 75.2 °F 53.6 °F 47% 29.97 in 10.0 mi South 9.2 mph - N/A   Scattered Clouds
6:45 PM 69.8 °F 51.8 °F 53% 29.98 in 10.0 mi ESE 10.4 mph - N/A   Clear
7:45 PM 66.2 °F 51.8 °F 60% 29.98 in 10.0 mi SE 8.1 mph - N/A   Clear
8:45 PM 66.2 °F 50.0 °F 56% 29.98 in 10.0 mi SSE 9.2 mph - N/A   Scattered Clouds
9:15 PM 64.4 °F 50.0 °F 59% 29.98 in 10.0 mi SSE 5.8 mph - N/A   Scattered Clouds
9:35 PM 62.6 °F 50.0 °F 63% 29.98 in 10.0 mi SSE 8.1 mph - N/A   Clear
9:55 PM 62.6 °F 50.0 °F 63% 29.98 in 10.0 mi SSE 5.8 mph - N/A   Clear
10:15 PM 60.8 °F 50.0 °F 68% 29.99 in 10.0 mi South 4.6 mph - N/A   Clear
10:35 PM 60.8 °F 50.0 °F 68% 29.99 in 10.0 mi SSE 9.2 mph - N/A   Clear
10:55 PM 60.8 °F 50.0 °F 68% 30.00 in 10.0 mi SSE 8.1 mph - N/A   Clear
11:15 PM 60.8 °F 50.0 °F 68% 30.00 in 10.0 mi South 5.8 mph - N/A   Clear